Hourly Data Report for October 07, 2020

OTTAWA INTL A
ONTARIO
Current Station Operator: NAVCAN

45°19'00.000" N
75°40'00.000" W
114.90 m
6106001
71628
YOW

Download Data

Hourly Data (October 2020)
Hourly Data Report for October 7, 2020
TIME Temp Definition
°C
Dew Point Definition
°C
Rel Hum Definition
%
Wind Dir Definition
10's deg

Wind Spd Definition
km/h
Visibility Definition
km
Stn Press Definition
kPa
Hmdx Definition


Wind Chill Definition


Weather Definition


00:00 13.7 8.7 72 23 10 24.1 99.18     LegendNANA
01:00 12.1 8.5 79 23 8 24.1 99.13     Mainly Clear
02:00 9.6 6.8 82 16 4 24.1 99.03     LegendNANA
03:00 10.6 8.4 87 17 8 24.1 98.94     LegendNANA
04:00 11.9 9.3 84 16 10 24.1 98.80     Mostly Cloudy
05:00 11.9 9.8 87 16 13 24.1 98.65     LegendNANA
06:00 12.6 10.2 85 20 15 16.1 98.57     Rain
07:00 12.3 11.4 94 19 15 16.1 98.46     Rain
08:00 12.9 12.1 95 20 21 24.1 98.34     Rain
09:00 13.3 12.4 95 20 24 9.7 98.22     Rain,Fog
10:00 14.3 12.7 90 23 26 24.1 98.10     Thunderstorms,Rain Showers
11:00 14.4 11.1 80 23 31 24.1 98.03     LegendNANA
12:00 16.1 11.0 71 23 30 24.1 97.96     LegendNANA
13:00 13.2 10.1 81 28 29 24.1 98.03     Mostly Cloudy
14:00 15.3 8.6 64 29 39 24.1 98.11     LegendNANA
15:00 13.6 7.6 67 27 32 16.1 98.21     Rain Showers
16:00 12.1 7.0 71 28 45 24.1 98.37     Rain Showers
17:00 10.2 6.3 76 30 46 24.1 98.58     Rain Showers
18:00 10.5 6.8 78 30 34 24.1 98.74     Rain Showers
19:00 10.9 6.7 75 30 34 24.1 98.89     Mostly Cloudy
20:00 10.1 5.1 71 30 48 24.1 99.06     LegendNANA
21:00 9.4 4.1 69 31 35 24.1 99.21     LegendNANA
22:00 8.7 4.3 74 30 32 24.1 99.35     Mostly Cloudy
23:00 7.3 1.8 68 31 32 24.1 99.50     LegendNANA

Notes on Data Quality.

Legend

  • E = Estimated
  • M = Missing
  • NA = Not Available*
  • [empty] = Indicates an unobserved value
Date modified: